Location: Avully
(45.9633°N, 6.0228°E)
Time: 14:20:38
(UTC+00:00)

MSX - Pass Details

Date: 23 May 2024
Orbit: 893 x 906 km, 99.0° (Epoch: 18 June)

Event Time Altitude Azimuth Distance (km) Brightness Sun altitude
Rises 02:03:49 0° 11° (N) 3,524 8.1 -15.1°
Reaches altitude 10° 02:06:15 10° 7° (N) 2,578 7.2 -14.8°
Maximum altitude 02:11:51 57° 291° (WNW) 1,052 4.1 -14.3°
Enters shadow 02:15:47 20° 219° (SW) 1,960 4.9 -13.8°
